Regional Weather Roundup
Issued by NWS Little Rock, AR

Home | Current Version | Previous Version | Graphics & Text | Print | Product List | Glossary On
Versions: 1 2 3 4 5 6 7 8 9 10 11 12 13 14 15 16 17 18 19 20 21 22 23 24 25 26 27 28 29 30 31 32 33 34 35 36 37 38 39 40 41 42 43 44 45 46 47 48 49
000
ASUS44 KLZK 282205
RWRLZK

WEATHER ROUNDUP FOR ARKANSAS
NATIONAL WEATHER SERVICE LITTLE ROCK AR
500 PM CDT THU AUG 28 2014

NOTE: "FAIR" INDICATES FEW OR NO CLOUDS BELOW 12,000 FEET WITH NO
SIGNIFICANT WEATHER AND/OR OBSTRUCTIONS TO VISIBILITY.

ARZ001-003-010-029-282300-
NORTHWEST ARKANSAS

CITY           SKY/WX    TMP DP  RH WIND       PRES   REMARKS
FAYETTEVILLE   SUNNY     88  60  38 S14       29.95F HX  87
FORT SMITH     MOSUNNY   93  64  38 SE8       29.90F HX  94
HARRISON       SUNNY     87  63  44 S8        29.98F HX  88
BENTONVILLE    MOSUNNY   91  61  35 SW9       29.96F HX  91
ROGERS         MOSUNNY   90  57  32 SE15      29.95F HX  88
HIGHFILL       SUNNY     91  60  35 S9        29.94F HX  90
SPRINGDALE     MOSUNNY   88  59  37 S12G23    29.97F HX  87
$$

ARZ004-005-016-282300-
NORTH CENTRAL ARKANSAS

CITY           SKY/WX    TMP DP  RH WIND       PRES   REMARKS
BATESVILLE     MOSUNNY   93  63  36 SW12      29.92F HX  94
FLIPPIN        SUNNY     91  59  33 S8        29.94F HX  90
MTN HOME       SUNNY     90  61  37 S6        29.94F HX  90
$$

ARZ040-041-282300-
WEST CENTRAL ARKANSAS

CITY           SKY/WX    TMP DP  RH WIND       PRES   REMARKS
MENA           SUNNY     91  64  40 CALM      29.95F HX  93
MOUNT IDA      SUNNY     89  65  44 VRB5      29.92F HX  91
$$

ARZ009-017-025-026-028-282300-
NORTHEAST ARKANSAS

CITY           SKY/WX    TMP DP  RH WIND       PRES   REMARKS
CORNING        LGT RAIN  91  66  43 SW7       29.94F HX  94
JONESBORO      SUNNY     92  64  39 SE9       29.93F HX  93
NEWPORT        SUNNY     93  66  40 S7        29.94F HX  95
WALNUT RIDGE   SUNNY     91  63  38 S12       29.93S HX  92
BLYTHEVILLE    MOSUNNY   91  71  51 CALM      29.95S HX  97
$$

ARZ022-023-033-042-044-282300-
CENTRAL ARKANSAS

CITY           SKY/WX    TMP DP  RH WIND       PRES   REMARKS
LITTLE ROCK    MOSUNNY   92  61  35 SE8       29.92F HX  92
N LITTLE ROCK  MOSUNNY   91  62  38 E7        29.92F HX  91
JACKSONVILLE   SUNNY     93  66  40 E6        29.93F HX  96
SEARCY         SUNNY     93  66  40 MISG      29.94F HX  95
RUSSELLVILLE   MOSUNNY   92  66  42 CALM      29.92F HX  94
CLINTON        FAIR      93  64  38 S5        29.93F HX  95
$$

ARZ036-282300-
EAST ARKANSAS

CITY           SKY/WX    TMP DP  RH WIND       PRES   REMARKS
WEST MEMPHIS   SUNNY     91  66  43 SW6       29.92F HX  93
$$

ARZ050-053-066-070-073-282300-
SOUTHWEST ARKANSAS

CITY           SKY/WX    TMP DP  RH WIND       PRES   REMARKS
ARKADELPHIA    FAIR      94  68  42 S7        29.91F HX  98
CAMDEN         CLOUDY    93  64  38 S7        29.91S HX  95
TEXARKANA      CLOUDY    89  71  55 NE8       29.90F HX  95
EL DORADO      PTSUNNY   91  71  51 S9        29.92F HX  97
DE QUEEN       MOSUNNY   91  69  48 E5        29.89F HX  96
$$

ARZ056-057-069-282300-
SOUTHEAST ARKANSAS

CITY           SKY/WX    TMP DP  RH WIND       PRES   REMARKS
PINE BLUFF     SUNNY     93  63  36 CALM      29.92F HX  94
STUTTGART      SUNNY     90  64  43 E6        29.95F HX  91
MONTICELLO     SUNNY     94  58  29 CALM      29.92F HX  93

$$




USA.gov is the U.S. government's official web portal to all federal, state and local government web resources and services.